Location: Dumpton Point
(51.3500°N, 1.4433°E)
Time: 05:44:18
(UTC+00:00)

Altair - Pass Details

Date: 02 October 2022
Orbit: 1501 x 1682 km, 47.2° (Epoch: 04 December)

Event Time Altitude Azimuth Distance (km) Brightness Sun altitude
Rises 04:56:00 0° 218° (SW) 4,768 9.7 -10.2°
Reaches altitude 10° 04:59:14 10° 212° (SSW) 3,811 9.2 -9.7°
Maximum altitude 05:08:09 42° 146° (SE) 2,202 8.6 -8.3°
Drops below altitude 10° 05:17:19 10° 80° (E) 3,933 11.4 -6.9°
Sets 05:20:43 0° 74° (ENE) 4,933 12.1 -6.4°
